Colby, KS

12:47 PM CST on February 25, 2017 (GMT -0600)
Shaltz

Weather History for KCBK - February, 2013

Change the Weather History Date:

Monday, February 11, 2013

  Actual Average (KGLD) Record (KGLD)
Temperature  
Mean Temperature 28 °F -  
Max Temperature 35 °F 43 °F 78 °F (1962)
Min Temperature 21 °F 18 °F -13 °F (1981)
Degree Days  
Heating Degree Days 37    
Moisture  
Dew Point 20 °F    
Average Humidity 74    
Maximum Humidity 93    
Minimum Humidity 52    
Precipitation  
Precipitation 0.00 in - - ()
Sea Level Pressure  
Sea Level Pressure 30.10 in    
Wind  
Wind Speed 10 mph (NW)    
Max Wind Speed 16 mph    
Max Gust Speed 17 mph    
Visibility 10 miles    
Events      
Averages and records for this station are not official NWS values.
T = Trace of Precipitation, MM = Missing Value Source: NWS Daily Summary

Daily Weather History Graph

Daily Weather History Graph

Search for Another Location

Airport or City:

Trip Planner

Search our weather history database for the weather conditions in past years. The results will help you decide how hot, cold, wet, or windy it might be!

Date:

Astronomy

Feb. 11, 2013 Rise Set
Actual Time 7:40 AM CST 6:16 PM CST
Civil Twilight 7:12 AM CST 6:44 PM CST
Nautical Twilight 6:41 AM CST 7:16 PM CST
Astronomical Twilight 6:10 AM CST 7:47 PM CST
Moon 8:06 AM CST (2/11) 8:14 PM CST (2/11)
Length of Visible Light 11h 31m
Length of Day
10h 36m
Waxing Crescent, 3% of the Moon is Illuminated
Feb 11
Waxing Crescent
Feb 17
First Quarter
Feb 25
Full
Mar 4
Last Quarter
Mar 11
New

Hourly Weather History & Observations

Time (CST) Temp. Windchill Dew Point Humidity Pressure Visibility Wind Dir Wind Speed Gust Speed Precip Events Conditions
12:15 AM 23.0 °F 13.9 °F 21.2 °F 93% 30.06 in 10.0 mi West 8.1 mph - N/A   Clear
12:35 AM 23.0 °F 12.4 °F 21.2 °F 93% 30.06 in 10.0 mi WNW 10.4 mph - N/A   Clear
12:55 AM 23.0 °F 11.1 °F 21.2 °F 93% 30.06 in 10.0 mi WNW 12.7 mph - N/A   Clear
1:15 AM 23.0 °F 10.6 °F 21.2 °F 93% 30.06 in 10.0 mi NW 13.8 mph - N/A   Clear
1:35 AM 23.0 °F 9.6 °F 21.2 °F 93% 30.05 in 10.0 mi NW 16.1 mph - N/A   Clear
1:55 AM 23.0 °F 10.6 °F 21.2 °F 93% 30.06 in 10.0 mi NW 13.8 mph - N/A   Clear
2:15 AM 23.0 °F 10.6 °F 21.2 °F 93% 30.08 in 10.0 mi WNW 13.8 mph - N/A   Clear
2:35 AM 23.0 °F 10.6 °F 19.4 °F 86% 30.08 in 10.0 mi WNW 13.8 mph - N/A   Clear
2:55 AM 23.0 °F 10.6 °F 19.4 °F 86% 30.07 in 10.0 mi NW 13.8 mph - N/A   Clear
3:15 AM 23.0 °F 11.1 °F 19.4 °F 86% 30.08 in 10.0 mi WNW 12.7 mph - N/A   Clear
3:35 AM 23.0 °F 11.7 °F 19.4 °F 86% 30.09 in 10.0 mi WNW 11.5 mph - N/A   Clear
3:55 AM 21.2 °F 9.5 °F 19.4 °F 93% 30.09 in 10.0 mi WNW 11.5 mph - N/A   Clear
4:15 AM 21.2 °F 7.8 °F 17.6 °F 86% 30.09 in 10.0 mi WNW 15.0 mph - N/A   Clear
4:35 AM 21.2 °F 8.3 °F 17.6 °F 86% 30.09 in 10.0 mi WNW 13.8 mph - N/A   Clear
4:55 AM 21.2 °F 8.3 °F 17.6 °F 86% 30.10 in 10.0 mi WNW 13.8 mph - N/A   Mostly Cloudy
5:15 AM 21.2 °F 8.3 °F 17.6 °F 86% 30.09 in 10.0 mi NW 13.8 mph - N/A   Mostly Cloudy
5:35 AM 21.2 °F 9.5 °F 17.6 °F 86% 30.09 in 10.0 mi NW 11.5 mph - N/A   Scattered Clouds
5:55 AM 21.2 °F 8.9 °F 17.6 °F 86% 30.10 in 10.0 mi NW 12.7 mph - N/A   Clear
6:15 AM 21.2 °F 7.8 °F 17.6 °F 86% 30.10 in 10.0 mi NW 15.0 mph - N/A   Clear
6:35 AM 21.2 °F 8.3 °F 17.6 °F 86% 30.10 in 10.0 mi NW 13.8 mph - N/A   Clear
6:55 AM 21.2 °F 9.5 °F 17.6 °F 86% 30.11 in 10.0 mi NW 11.5 mph - N/A   Clear
7:15 AM 21.2 °F 8.3 °F 17.6 °F 86% 30.11 in 10.0 mi NW 13.8 mph - N/A   Clear
7:35 AM 21.2 °F 8.9 °F 17.6 °F 86% 30.12 in 10.0 mi NW 12.7 mph - N/A   Clear
7:55 AM 21.2 °F 10.9 °F 17.6 °F 86% 30.12 in 10.0 mi NW 9.2 mph - N/A   Clear
8:15 AM 21.2 °F 10.9 °F 17.6 °F 86% 30.13 in 10.0 mi WNW 9.2 mph - N/A   Clear
8:35 AM 21.2 °F 12.6 °F 17.6 °F 86% 30.14 in 10.0 mi WNW 6.9 mph - N/A   Clear
8:55 AM 23.0 °F 13.9 °F 17.6 °F 80% 30.14 in 10.0 mi WNW 8.1 mph - N/A   Clear
9:15 AM 23.0 °F 13.9 °F 17.6 °F 80% 30.15 in 10.0 mi WNW 8.1 mph - N/A   Clear
9:35 AM 26.6 °F 16.2 °F 19.4 °F 74% 30.16 in 10.0 mi WNW 11.5 mph - N/A   Clear
9:55 AM 26.6 °F 15.7 °F 19.4 °F 74% 30.15 in 10.0 mi NW 12.7 mph - N/A   Clear
10:15 AM 28.4 °F 18.5 °F 19.4 °F 69% 30.16 in 10.0 mi NNW 11.5 mph 17.3 mph N/A   Clear
10:35 AM 28.4 °F 19.1 °F 19.4 °F 69% 30.16 in 10.0 mi NNW 10.4 mph - N/A   Clear
10:55 AM 30.2 °F 21.3 °F 21.2 °F 69% 30.17 in 10.0 mi NNW 10.4 mph - N/A   Clear
11:15 AM 32.0 °F 23.0 °F 21.2 °F 64% 30.16 in 10.0 mi NNW 11.5 mph 17.3 mph N/A   Clear
11:35 AM 32.0 °F 23.0 °F 21.2 °F 64% 30.16 in 10.0 mi NNW 11.5 mph 16.1 mph N/A   Clear
11:55 AM 32.0 °F 23.0 °F 19.4 °F 60% 30.15 in 10.0 mi NNW 11.5 mph - N/A   Clear
12:15 PM 32.0 °F 23.6 °F 19.4 °F 60% 30.14 in 10.0 mi North 10.4 mph - N/A   Clear
12:35 PM 33.8 °F 27.0 °F 21.2 °F 60% 30.14 in 10.0 mi NNW 8.1 mph - N/A   Clear
12:55 PM 33.8 °F 27.0 °F 21.2 °F 60% 30.13 in 10.0 mi NNW 8.1 mph - N/A   Clear
1:15 PM 33.8 °F 27.0 °F 21.2 °F 60% 30.13 in 10.0 mi North 8.1 mph - N/A   Scattered Clouds
1:35 PM 33.8 °F 27.0 °F 21.2 °F 60% 30.12 in 10.0 mi North 8.1 mph - N/A   Mostly Cloudy
1:55 PM 33.8 °F 25.8 °F 21.2 °F 60% 30.10 in 10.0 mi NNE 10.4 mph - N/A   Mostly Cloudy
2:15 PM 33.8 °F 29.6 °F 21.2 °F 60% 30.10 in 10.0 mi North 4.6 mph - N/A   Scattered Clouds
2:35 PM 33.8 °F 27.7 °F 19.4 °F 56% 30.09 in 10.0 mi NNE 6.9 mph - N/A   Scattered Clouds
2:55 PM 33.8 °F 27.0 °F 19.4 °F 56% 30.08 in 10.0 mi North 8.1 mph - N/A   Scattered Clouds
3:15 PM 35.6 °F 32.8 °F 19.4 °F 52% 30.08 in 10.0 mi North 3.5 mph - N/A   Scattered Clouds
3:35 PM 35.6 °F 31.7 °F 19.4 °F 52% 30.07 in 10.0 mi NNW 4.6 mph - N/A   Clear
3:55 PM 35.6 °F 32.8 °F 19.4 °F 52% 30.07 in 10.0 mi NW 3.5 mph - N/A   Clear
4:55 PM 35.6 °F - 19.4 °F 52% 30.06 in 10.0 mi Calm Calm - N/A   Clear
5:15 PM 33.8 °F - 19.4 °F 56% 30.06 in 10.0 mi Calm Calm - N/A   Clear
5:35 PM 33.8 °F - 19.4 °F 56% 30.07 in 10.0 mi Calm Calm - N/A   Clear
5:55 PM 33.8 °F - 19.4 °F 56% 30.07 in 10.0 mi Calm Calm - N/A   Clear
6:15 PM 32.0 °F 28.7 °F 19.4 °F 60% 30.07 in 10.0 mi East 3.5 mph - N/A   Clear
6:35 PM 32.0 °F 28.7 °F 21.2 °F 64% 30.07 in 10.0 mi ESE 3.5 mph - N/A   Clear
6:55 PM 32.0 °F 27.5 °F 21.2 °F 64% 30.08 in 10.0 mi SE 4.6 mph - N/A   Clear
7:15 PM 32.0 °F - 19.4 °F 60% 30.08 in 10.0 mi Calm Calm - N/A   Clear
7:35 PM 32.0 °F 28.7 °F 21.2 °F 64% 30.08 in 10.0 mi SSE 3.5 mph - N/A   Clear
7:55 PM 32.0 °F 27.5 °F 23.0 °F 69% 30.09 in 10.0 mi SSE 4.6 mph - N/A   Clear
8:15 PM 28.4 °F 23.3 °F 23.0 °F 80% 30.09 in 10.0 mi SE 4.6 mph - N/A   Clear
8:35 PM 28.4 °F 24.6 °F 23.0 °F 80% 30.09 in 10.0 mi SSE 3.5 mph - N/A   Clear
8:55 PM 30.2 °F 26.7 °F 23.0 °F 75% 30.09 in 10.0 mi SSE 3.5 mph - N/A   Clear
9:15 PM 30.2 °F - 21.2 °F 69% 30.09 in 10.0 mi Calm Calm - N/A   Clear
9:35 PM 30.2 °F 26.7 °F 23.0 °F 75% 30.09 in 10.0 mi SSE 3.5 mph - N/A   Clear
9:55 PM 28.4 °F 23.3 °F 21.2 °F 74% 30.10 in 10.0 mi SSE 4.6 mph - N/A   Clear
10:15 PM 28.4 °F 21.2 °F 21.2 °F 74% 30.10 in 10.0 mi SSE 6.9 mph - N/A   Clear
10:35 PM 26.6 °F 22.6 °F 21.2 °F 80% 30.10 in 10.0 mi SE 3.5 mph - N/A   Clear
10:55 PM 28.4 °F 24.6 °F 21.2 °F 74% 30.09 in 10.0 mi SSE 3.5 mph - N/A   Clear
11:15 PM 28.4 °F 24.6 °F 21.2 °F 74% 30.09 in 10.0 mi SSE 3.5 mph - N/A   Clear
11:35 PM 26.6 °F - 21.2 °F 80% 30.08 in 10.0 mi Calm Calm - N/A   Clear
11:55 PM 28.4 °F - 21.2 °F 74% 30.08 in 10.0 mi Calm Calm - N/A   Clear